Weather History for Hutchinson, KS

Change the Weather History Date:

Sunday, May 25, 2014

  Actual Average Record
Temperature  
Mean Temperature 73 °F -  
Max Temperature 82 °F 79 °F 93 °F (2006)
Min Temperature 64 °F 52 °F 42 °F (2002)
Cooling Degree Days 8    
Growing Degree Days 23 (Base 50)    
Moisture  
Dew Point 64 °F    
Average Humidity 80    
Maximum Humidity 90    
Minimum Humidity 54    
Precipitation  
Precipitation 0.05 in - - ()
Sea Level Pressure  
Sea Level Pressure 29.93 in    
Wind  
Wind Speed 9 mph (SSE)    
Max Wind Speed 18 mph    
Max Gust Speed 30 mph    
Visibility 9 miles    
Events Rain , Thunderstorm    
Averages and records for this station are not official NWS values.
T = Trace of Precipitation, MM = Missing Value Source: NWS Daily Summary

Daily Weather History Graph

Daily Weather History Graph

Search for Another Location

Airport:

Trip Planner

Search our weather history database for the weather conditions in past years. The results will help you decide how hot, cold, wet, or windy it might be!

Date:

Astronomy

May. 25, 2014 Rise Set
Actual Time 6:13 AM CDT 8:43 PM CDT
Civil Twilight 5:43 AM CDT 9:13 PM CDT
Nautical Twilight 5:05 AM CDT 9:51 PM CDT
Astronomical Twilight 4:24 AM CDT 10:33 PM CDT
Moon 4:15 AM CDT (5/25) 5:48 PM CDT (5/25)
Length of Visible Light 15h 30m
Length of Day
14h 29m
Waning Crescent, 10% of the Moon is Illuminated
May 25
Waning Crescent
May 28
New
Jun 5
First Quarter
Jun 12
Full
Jun 19
Last Quarter

Hourly Weather History & Observations

Time (CDT) Temp. Heat Index Dew Point Humidity Pressure Visibility Wind Dir Wind Speed Gust Speed Precip Events Conditions
1:52 AM 66.0 °F - 61.0 °F 84% 29.91 in 10.0 mi SSE 5.8 mph - N/A   Clear
2:52 AM 64.9 °F - 61.0 °F 87% 29.90 in 10.0 mi SE 10.4 mph - N/A   Clear
4:19 AM 64.9 °F - 62.1 °F 90% 29.97 in 9.0 mi SE 8.1 mph - N/A   Overcast
4:40 AM 64.9 °F - 62.1 °F 90% 29.97 in 9.0 mi SE 8.1 mph - N/A   Overcast
4:52 AM 64.9 °F - 62.1 °F 90% 29.91 in 10.0 mi SE 8.1 mph - N/A   Overcast
5:52 AM 64.9 °F - 62.1 °F 90% 29.90 in 10.0 mi SE 6.9 mph - N/A   Overcast
6:52 AM 66.0 °F - 63.0 °F 90% 29.91 in 6.0 mi South 6.9 mph - N/A   Overcast
7:52 AM 68.0 °F - 64.9 °F 90% 29.92 in 6.0 mi South 8.1 mph - N/A   Partly Cloudy
8:11 AM 69.1 °F - 64.9 °F 87% 29.97 in 6.0 mi SSE 9.2 mph - N/A   Mostly Cloudy
8:34 AM 70.0 °F - 64.9 °F 84% 29.97 in 6.0 mi South 11.5 mph - N/A   Haze
8:41 AM 70.0 °F - 66.0 °F 87% 29.98 in 7.0 mi South 9.2 mph - N/A   Mostly Cloudy
8:52 AM 70.0 °F - 64.9 °F 84% 29.93 in 6.0 mi South 11.5 mph - N/A   Haze
10:36 AM 69.1 °F - 64.9 °F 87% 30.03 in 6.0 mi SSW 6.9 mph - 0.01 in Rain , Thunderstorm Light Thunderstorms and Rain
10:45 AM 69.1 °F - 64.9 °F 87% 30.02 in 6.0 mi South 5.8 mph - 0.02 in Rain , Thunderstorm Light Thunderstorms and Rain
10:52 AM 68.0 °F - 64.0 °F 87% 29.95 in 3.0 mi Calm Calm - 0.03 in Rain , Thunderstorm Thunderstorms and Rain
11:41 AM 71.1 °F - 66.0 °F 84% 29.97 in 7.0 mi East 8.1 mph - 0.02 in   Scattered Clouds
11:52 AM 72.0 °F - 66.0 °F 81% 29.92 in 9.0 mi SE 9.2 mph - 0.02 in   Scattered Clouds
12:52 PM 73.9 °F - 66.0 °F 76% 29.90 in 10.0 mi ESE 10.4 mph - 0.00 in   Mostly Cloudy
1:18 PM 75.9 °F - 66.9 °F 74% 29.95 in 10.0 mi SSE 16.1 mph - N/A   Overcast
1:52 PM 79.0 °F - 66.9 °F 66% 29.87 in 10.0 mi SE 15.0 mph - N/A   Scattered Clouds
2:15 PM 77.0 °F - 66.9 °F 71% 29.95 in 10.0 mi SSE 12.7 mph - N/A   Mostly Cloudy
2:33 PM 80.1 °F 82.3 °F 66.9 °F 64% 29.94 in 10.0 mi SSE 17.3 mph - N/A   Mostly Cloudy
2:52 PM 80.1 °F 82.3 °F 66.9 °F 64% 29.88 in 10.0 mi SSE 18.4 mph - N/A   Scattered Clouds
3:23 PM 82.0 °F 83.4 °F 64.0 °F 54% 29.93 in 10.0 mi South 17.3 mph - N/A   Mostly Cloudy
3:52 PM 81.0 °F 83.0 °F 66.0 °F 60% 29.86 in 10.0 mi South 17.3 mph - N/A   Mostly Cloudy
4:52 PM 80.1 °F 81.7 °F 64.0 °F 58% 29.86 in 10.0 mi South 11.5 mph - N/A   Partly Cloudy
5:52 PM 78.1 °F - 64.9 °F 64% 29.86 in 10.0 mi SSE 16.1 mph 29.9 mph N/A   Clear
6:36 PM 73.9 °F - 64.0 °F 71% 29.91 in 10.0 mi SE 18.4 mph 24.2 mph N/A Thunderstorm Clear
6:52 PM 73.0 °F - 64.9 °F 76% 29.86 in 10.0 mi SE 15.0 mph - N/A Thunderstorm Scattered Clouds
7:52 PM 71.1 °F - 64.9 °F 81% 29.91 in 10.0 mi Variable 3.5 mph - N/A Thunderstorm Overcast
8:00 PM 70.0 °F - 64.0 °F 81% 29.96 in 10.0 mi SE 5.8 mph - N/A   Overcast
8:45 PM 68.0 °F - 63.0 °F 84% 29.95 in 10.0 mi SE 8.1 mph - N/A   Scattered Clouds
8:52 PM 68.0 °F - 63.0 °F 84% 29.89 in 10.0 mi SE 6.9 mph - N/A   Partly Cloudy
9:52 PM 66.9 °F - 62.1 °F 84% 29.90 in 10.0 mi SSE 5.8 mph - N/A   Clear
10:52 PM 64.9 °F - 61.0 °F 87% 29.93 in 10.0 mi SE 4.6 mph - N/A   Clear
11:52 PM 64.0 °F - 60.1 °F 87% 29.93 in 10.0 mi East 5.8 mph - N/A   Clear